Time,TemperatureF,DewpointF,PressureIn,WindDirection,WindDirectionDegrees,WindSpeedMPH,WindSpeedGustMPH,Humidity,HourlyPrecipIn,Conditions,Clouds,dailyrainin,SolarRadiationWatts/m^2,SoftwareType,DateUTC
2013-01-06 00:01:00,14.8,11.6,30.23,WNW,284,2.0,4.0,87,0.00,,,0.00,0,Wunderground v.1.15,2013-01-06 06:01:00,
2013-01-06 00:06:00,14.6,11.4,30.24,WNW,298,2.0,4.0,87,0.00,,,0.00,0,Wunderground v.1.15,2013-01-06 06:06:00,
2013-01-06 00:11:00,14.3,11.1,30.24,WNW,298,2.0,3.0,87,0.00,,,0.00,0,Wunderground v.1.15,2013-01-06 06:11:00,
2013-01-06 00:16:00,13.9,10.7,30.24,WNW,298,0.0,3.0,87,0.00,,,0.00,0,Wunderground v.1.15,2013-01-06 06:16:00,
2013-01-06 00:21:00,13.7,10.5,30.24,WNW,298,0.0,1.0,87,0.00,,,0.00,0,Wunderground v.1.15,2013-01-06 06:21:00,
2013-01-06 00:27:00,13.4,10.5,30.24,WNW,298,0.0,1.0,88,0.00,,,0.00,0,Wunderground v.1.15,2013-01-06 06:27:00,
2013-01-06 00:32:00,13.4,10.5,30.23,WNW,298,0.0,0.0,88,0.00,,,0.00,0,Wunderground v.1.15,2013-01-06 06:32:00,
2013-01-06 00:37:00,13.0,10.1,30.23,WNW,298,0.0,0.0,88,0.00,,,0.00,0,Wunderground v.1.15,2013-01-06 06:37:00,
2013-01-06 00:42:00,11.9,8.8,30.23,WNW,298,1.0,2.0,87,0.00,,,0.00,0,Wunderground v.1.15,2013-01-06 06:42:00,
2013-01-06 00:48:00,10.8,7.7,30.23,WNW,298,1.0,2.0,87,0.00,,,0.00,0,Wunderground v.1.15,2013-01-06 06:48:00,
2013-01-06 00:53:00,10.3,7.2,30.22,WNW,298,0.0,1.0,87,0.00,,,0.00,0,Wunderground v.1.15,2013-01-06 06:53:00,
2013-01-06 00:58:00,10.2,7.1,30.22,WNW,298,0.0,1.0,87,0.00,,,0.00,0,Wunderground v.1.15,2013-01-06 06:58:00,
2013-01-06 01:03:00,10.9,8.0,30.22,WNW,298,1.0,1.0,88,0.00,,,0.00,0,Wunderground v.1.15,2013-01-06 07:03:00,
2013-01-06 01:08:00,11.1,8.2,30.22,WNW,298,0.0,1.0,88,0.00,,,0.00,0,Wunderground v.1.15,2013-01-06 07:08:00,
2013-01-06 01:13:00,11.2,8.3,30.22,WNW,298,0.0,1.0,88,0.00,,,0.00,0,Wunderground v.1.15,2013-01-06 07:13:00,
2013-01-06 01:18:00,11.1,8.2,30.22,WNW,298,1.0,1.0,88,0.00,,,0.00,0,Wunderground v.1.15,2013-01-06 07:18:00,
2013-01-06 01:24:00,10.9,8.0,30.22,WNW,298,2.0,2.0,88,0.00,,,0.00,0,Wunderground v.1.15,2013-01-06 07:24:00,
2013-01-06 01:29:00,10.5,7.6,30.22,WNW,298,1.0,2.0,88,0.00,,,0.00,0,Wunderground v.1.15,2013-01-06 07:29:00,
2013-01-06 01:34:00,10.7,7.8,30.22,WNW,294,2.0,2.0,88,0.00,,,0.00,0,Wunderground v.1.15,2013-01-06 07:34:00,
2013-01-06 01:39:00,10.8,7.9,30.22,WNW,294,2.0,2.0,88,0.00,,,0.00,0,Wunderground v.1.15,2013-01-06 07:39:00,
2013-01-06 01:44:00,10.8,7.9,30.22,WNW,294,1.0,2.0,88,0.00,,,0.00,0,Wunderground v.1.15,2013-01-06 07:44:00,
2013-01-06 01:50:00,10.4,7.6,30.23,WNW,294,2.0,2.0,88,0.00,,,0.00,0,Wunderground v.1.15,2013-01-06 07:50:00,
2013-01-06 01:55:00,9.8,7.0,30.23,West,265,1.0,2.0,88,0.00,,,0.00,0,Wunderground v.1.15,2013-01-06 07:55:00,
2013-01-06 02:00:00,9.0,6.2,30.23,West,265,2.0,2.0,88,0.00,,,0.00,0,Wunderground v.1.15,2013-01-06 08:00:00,
2013-01-06 02:05:00,8.0,4.9,30.23,West,265,2.0,3.0,87,0.00,,,0.00,0,Wunderground v.1.15,2013-01-06 08:05:00,
2013-01-06 02:10:00,7.6,4.5,30.23,West,265,1.0,2.0,87,0.00,,,0.00,0,Wunderground v.1.15,2013-01-06 08:10:00,
2013-01-06 02:15:00,7.4,4.6,30.23,West,265,1.0,3.0,88,0.00,,,0.00,0,Wunderground v.1.15,2013-01-06 08:15:00,
2013-01-06 02:20:00,7.1,4.3,30.23,West,265,0.0,1.0,88,0.00,,,0.00,0,Wunderground v.1.15,2013-01-06 08:20:00,
2013-01-06 02:25:00,7.1,4.3,30.23,West,265,0.0,1.0,88,0.00,,,0.00,0,Wunderground v.1.15,2013-01-06 08:25:00,
2013-01-06 02:30:00,7.0,4.2,30.23,West,265,1.0,1.0,88,0.00,,,0.00,0,Wunderground v.1.15,2013-01-06 08:30:00,
2013-01-06 02:35:00,7.0,4.2,30.23,West,265,1.0,3.0,88,0.00,,,0.00,0,Wunderground v.1.15,2013-01-06 08:35:00,
2013-01-06 02:40:00,7.2,4.4,30.23,West,265,0.0,1.0,88,0.00,,,0.00,0,Wunderground v.1.15,2013-01-06 08:40:00,
2013-01-06 02:45:00,7.6,4.8,30.23,West,265,0.0,3.0,88,0.00,,,0.00,0,Wunderground v.1.15,2013-01-06 08:45:00,
2013-01-06 02:50:00,7.8,5.2,30.23,West,265,0.0,0.0,89,0.00,,,0.00,0,Wunderground v.1.15,2013-01-06 08:50:00,
2013-01-06 02:55:00,8.2,5.6,30.23,West,265,1.0,2.0,89,0.00,,,0.00,0,Wunderground v.1.15,2013-01-06 08:55:00,
2013-01-06 03:00:00,8.3,5.5,30.23,West,265,0.0,0.0,88,0.00,,,0.00,0,Wunderground v.1.15,2013-01-06 09:00:00,
2013-01-06 03:05:00,8.3,5.5,30.24,West,265,1.0,2.0,88,0.00,,,0.00,0,Wunderground v.1.15,2013-01-06 09:05:00,
2013-01-06 03:10:00,8.2,5.4,30.24,West,265,2.0,2.0,88,0.00,,,0.00,0,Wunderground v.1.15,2013-01-06 09:10:00,
2013-01-06 03:15:00,8.3,5.5,30.24,West,265,1.0,2.0,88,0.00,,,0.00,0,Wunderground v.1.15,2013-01-06 09:15:00,
2013-01-06 03:20:00,8.3,5.5,30.24,West,265,1.0,2.0,88,0.00,,,0.00,0,Wunderground v.1.15,2013-01-06 09:20:00,
2013-01-06 03:25:00,8.3,5.5,30.24,West,265,2.0,2.0,88,0.00,,,0.00,0,Wunderground v.1.15,2013-01-06 09:25:00,
2013-01-06 03:30:00,8.3,5.5,30.24,West,265,2.0,3.0,88,0.00,,,0.00,0,Wunderground v.1.15,2013-01-06 09:30:00,
2013-01-06 03:35:00,8.5,5.7,30.24,SW,229,3.0,4.0,88,0.00,,,0.00,0,Wunderground v.1.15,2013-01-06 09:35:00,
2013-01-06 03:40:00,8.6,5.8,30.24,SW,221,2.0,3.0,88,0.00,,,0.00,0,Wunderground v.1.15,2013-01-06 09:40:00,
2013-01-06 03:45:00,8.3,5.5,30.24,SW,221,3.0,3.0,88,0.00,,,0.00,0,Wunderground v.1.15,2013-01-06 09:45:00,
2013-01-06 03:50:00,8.4,5.6,30.24,SW,221,0.0,2.0,88,0.00,,,0.00,0,Wunderground v.1.15,2013-01-06 09:50:00,
2013-01-06 03:55:00,8.2,5.4,30.24,SW,221,0.0,2.0,88,0.00,,,0.00,0,Wunderground v.1.15,2013-01-06 09:55:00,
2013-01-06 04:00:00,7.4,4.6,30.23,SW,221,2.0,2.0,88,0.00,,,0.00,0,Wunderground v.1.15,2013-01-06 10:00:00,
2013-01-06 04:05:00,6.8,3.8,30.23,SW,221,3.0,3.0,87,0.00,,,0.00,0,Wunderground v.1.15,2013-01-06 10:05:00,
2013-01-06 04:10:00,6.8,4.0,30.23,SW,221,2.0,2.0,88,0.00,,,0.00,0,Wunderground v.1.15,2013-01-06 10:10:00,
2013-01-06 04:15:00,6.8,4.0,30.23,SSW,209,3.0,3.0,88,0.00,,,0.00,0,Wunderground v.1.15,2013-01-06 10:15:00,
2013-01-06 04:20:00,6.9,4.1,30.23,SSW,209,4.0,4.0,88,0.00,,,0.00,0,Wunderground v.1.15,2013-01-06 10:20:00,
2013-01-06 04:25:00,7.5,4.7,30.23,SSW,209,2.0,4.0,88,0.00,,,0.00,0,Wunderground v.1.15,2013-01-06 10:25:00,
2013-01-06 04:30:00,8.0,5.2,30.23,SSW,209,2.0,3.0,88,0.00,,,0.00,0,Wunderground v.1.15,2013-01-06 10:30:00,
2013-01-06 04:35:00,8.3,5.5,30.23,SSW,209,2.0,3.0,88,0.00,,,0.00,0,Wunderground v.1.15,2013-01-06 10:35:00,
2013-01-06 04:40:00,8.5,5.7,30.24,SSW,209,2.0,3.0,88,0.00,,,0.00,0,Wunderground v.1.15,2013-01-06 10:40:00,
2013-01-06 04:45:00,8.4,5.6,30.23,SSW,209,4.0,4.0,88,0.00,,,0.00,0,Wunderground v.1.15,2013-01-06 10:45:00,
2013-01-06 04:50:00,8.3,5.5,30.23,SSW,209,3.0,3.0,88,0.00,,,0.00,0,Wunderground v.1.15,2013-01-06 10:50:00,
2013-01-06 04:55:00,8.2,5.4,30.23,SSW,209,2.0,3.0,88,0.00,,,0.00,0,Wunderground v.1.15,2013-01-06 10:55:00,
2013-01-06 05:00:00,7.7,4.9,30.23,SSW,209,2.0,3.0,88,0.00,,,0.00,0,Wunderground v.1.15,2013-01-06 11:00:00,
2013-01-06 05:05:00,7.7,4.9,30.23,SSW,209,2.0,4.0,88,0.00,,,0.00,0,Wunderground v.1.15,2013-01-06 11:05:00,
2013-01-06 05:10:00,8.5,5.7,30.23,SSW,209,2.0,3.0,88,0.00,,,0.00,0,Wunderground v.1.15,2013-01-06 11:10:00,
2013-01-06 05:15:00,8.8,6.0,30.23,SSW,209,3.0,4.0,88,0.00,,,0.00,0,Wunderground v.1.15,2013-01-06 11:15:00,
2013-01-06 05:20:00,8.9,6.1,30.23,SSW,207,3.0,4.0,88,0.00,,,0.00,0,Wunderground v.1.15,2013-01-06 11:20:00,
2013-01-06 05:25:00,8.7,5.9,30.23,SSW,207,2.0,4.0,88,0.00,,,0.00,0,Wunderground v.1.15,2013-01-06 11:25:00,
2013-01-06 05:30:00,8.6,5.8,30.23,SSW,207,0.0,3.0,88,0.00,,,0.00,0,Wunderground v.1.15,2013-01-06 11:30:00,
2013-01-06 05:35:00,8.5,5.7,30.23,SSW,207,0.0,3.0,88,0.00,,,0.00,0,Wunderground v.1.15,2013-01-06 11:35:00,
2013-01-06 05:40:00,8.8,6.0,30.23,SSW,207,2.0,3.0,88,0.00,,,0.00,0,Wunderground v.1.15,2013-01-06 11:40:00,
2013-01-06 05:45:00,8.6,5.8,30.23,SSW,202,1.0,3.0,88,0.00,,,0.00,0,Wunderground v.1.15,2013-01-06 11:45:00,
2013-01-06 05:51:00,8.7,5.9,30.23,SSW,202,2.0,2.0,88,0.00,,,0.00,0,Wunderground v.1.15,2013-01-06 11:51:00,
2013-01-06 05:56:00,8.3,5.5,30.23,SSW,202,1.0,3.0,88,0.00,,,0.00,0,Wunderground v.1.15,2013-01-06 11:56:00,
2013-01-06 06:01:00,7.9,5.1,30.23,SW,219,3.0,3.0,88,0.00,,,0.00,0,Wunderground v.1.15,2013-01-06 12:01:00,
2013-01-06 06:06:00,7.9,5.1,30.23,SW,220,2.0,3.0,88,0.00,,,0.00,0,Wunderground v.1.15,2013-01-06 12:06:00,
2013-01-06 06:11:00,8.0,5.2,30.23,SW,220,3.0,3.0,88,0.00,,,0.00,0,Wunderground v.1.15,2013-01-06 12:11:00,
2013-01-06 06:16:00,8.2,5.4,30.23,SW,220,2.0,3.0,88,0.00,,,0.00,0,Wunderground v.1.15,2013-01-06 12:16:00,
2013-01-06 06:21:00,8.5,5.7,30.23,SW,222,2.0,4.0,88,0.00,,,0.00,0,Wunderground v.1.15,2013-01-06 12:21:00,
2013-01-06 06:26:00,8.8,6.0,30.23,SW,223,1.0,4.0,88,0.00,,,0.00,0,Wunderground v.1.15,2013-01-06 12:26:00,
2013-01-06 06:31:00,9.0,6.2,30.23,SW,224,1.0,3.0,88,0.00,,,0.00,0,Wunderground v.1.15,2013-01-06 12:31:00,
2013-01-06 06:36:00,9.0,6.2,30.23,SW,236,1.0,4.0,88,0.00,,,0.00,0,Wunderground v.1.15,2013-01-06 12:36:00,
2013-01-06 06:41:00,9.1,6.3,30.23,WSW,241,1.0,3.0,88,0.00,,,0.00,0,Wunderground v.1.15,2013-01-06 12:41:00,
2013-01-06 06:46:00,9.4,6.6,30.23,WSW,241,1.0,3.0,88,0.00,,,0.00,0,Wunderground v.1.15,2013-01-06 12:46:00,
2013-01-06 06:51:00,10.0,7.4,30.24,WSW,252,0.0,3.0,89,0.00,,,0.00,0,Wunderground v.1.15,2013-01-06 12:51:00,
2013-01-06 06:56:00,9.9,7.1,30.24,WSW,256,1.0,3.0,88,0.00,,,0.00,0,Wunderground v.1.15,2013-01-06 12:56:00,
2013-01-06 07:01:00,10.0,7.2,30.24,WSW,255,0.0,1.0,88,0.00,,,0.00,0,Wunderground v.1.15,2013-01-06 13:01:00,
2013-01-06 07:06:00,9.8,7.0,30.24,West,259,1.0,2.0,88,0.00,,,0.00,0,Wunderground v.1.15,2013-01-06 13:06:00,
2013-01-06 07:11:00,9.5,6.7,30.24,West,259,1.0,2.0,88,0.00,,,0.00,0,Wunderground v.1.15,2013-01-06 13:11:00,
2013-01-06 07:16:00,9.4,6.6,30.24,West,259,1.0,3.0,88,0.00,,,0.00,0,Wunderground v.1.15,2013-01-06 13:16:00,
2013-01-06 07:21:00,10.1,7.5,30.24,WSW,254,2.0,3.0,89,0.00,,,0.00,0,Wunderground v.1.15,2013-01-06 13:21:00,
2013-01-06 07:26:00,10.8,8.2,30.24,WSW,254,2.0,3.0,89,0.00,,,0.00,0,Wunderground v.1.15,2013-01-06 13:26:00,
2013-01-06 07:31:00,11.2,8.6,30.24,WSW,254,0.0,1.0,89,0.00,,,0.00,0,Wunderground v.1.15,2013-01-06 13:31:00,
2013-01-06 07:36:00,10.5,7.6,30.24,WSW,244,2.0,3.0,88,0.00,,,0.00,0,Wunderground v.1.15,2013-01-06 13:36:00,
2013-01-06 07:41:00,9.9,7.1,30.25,WSW,242,2.0,3.0,88,0.00,,,0.00,0,Wunderground v.1.15,2013-01-06 13:41:00,
2013-01-06 07:46:00,9.6,6.8,30.25,WSW,238,1.0,4.0,88,0.00,,,0.00,0,Wunderground v.1.15,2013-01-06 13:46:00,
2013-01-06 07:51:00,9.6,6.8,30.25,WSW,238,1.0,2.0,88,0.00,,,0.00,0,Wunderground v.1.15,2013-01-06 13:51:00,
2013-01-06 07:56:00,9.2,6.4,30.25,SW,234,3.0,3.0,88,0.00,,,0.00,0,Wunderground v.1.15,2013-01-06 13:56:00,
2013-01-06 08:01:00,9.1,6.3,30.25,SW,231,3.0,4.0,88,0.00,,,0.00,0,Wunderground v.1.15,2013-01-06 14:01:00,
2013-01-06 08:06:00,9.2,6.4,30.25,SW,231,3.0,4.0,88,0.00,,,0.00,5,Wunderground v.1.15,2013-01-06 14:06:00,
2013-01-06 08:11:00,9.4,6.6,30.25,SW,227,4.0,4.0,88,0.00,,,0.00,9,Wunderground v.1.15,2013-01-06 14:11:00,
2013-01-06 08:16:00,9.9,7.1,30.25,SW,225,4.0,5.0,88,0.00,,,0.00,11,Wunderground v.1.15,2013-01-06 14:16:00,
2013-01-06 08:21:00,10.4,7.6,30.25,SW,219,4.0,4.0,88,0.00,,,0.00,14,Wunderground v.1.15,2013-01-06 14:21:00,
2013-01-06 08:26:00,11.0,8.4,30.26,SW,226,4.0,5.0,89,0.00,,,0.00,18,Wunderground v.1.15,2013-01-06 14:26:00,
2013-01-06 08:31:00,11.8,9.2,30.26,SW,226,3.0,4.0,89,0.00,,,0.00,23,Wunderground v.1.15,2013-01-06 14:31:00,
2013-01-06 08:36:00,12.3,9.7,30.26,SW,226,2.0,4.0,89,0.00,,,0.00,26,Wunderground v.1.15,2013-01-06 14:36:00,
2013-01-06 08:41:00,13.0,10.4,30.26,SW,225,3.0,4.0,89,0.00,,,0.00,32,Wunderground v.1.15,2013-01-06 14:41:00,
2013-01-06 08:46:00,13.7,11.1,30.26,SSW,207,5.0,5.0,89,0.00,,,0.00,39,Wunderground v.1.15,2013-01-06 14:46:00,
2013-01-06 08:51:00,14.2,11.6,30.26,SSW,196,4.0,5.0,89,0.00,,,0.00,46,Wunderground v.1.15,2013-01-06 14:51:00,
2013-01-06 08:56:00,14.7,12.0,30.26,SSW,196,4.0,5.0,89,0.00,,,0.00,53,Wunderground v.1.15,2013-01-06 14:56:00,
2013-01-06 09:01:00,15.4,12.5,30.26,SSW,196,2.0,4.0,88,0.00,,,0.00,60,Wunderground v.1.15,2013-01-06 15:01:00,
2013-01-06 09:06:00,16.0,13.1,30.26,SSW,196,4.0,4.0,88,0.00,,,0.00,70,Wunderground v.1.15,2013-01-06 15:06:00,
2013-01-06 09:11:00,16.4,13.5,30.26,SSW,196,2.0,4.0,88,0.00,,,0.00,81,Wunderground v.1.15,2013-01-06 15:11:00,
2013-01-06 09:16:00,17.3,14.4,30.26,SSW,196,2.0,4.0,88,0.00,,,0.00,93,Wunderground v.1.15,2013-01-06 15:16:00,
2013-01-06 09:21:00,17.7,14.8,30.26,South,180,3.0,4.0,88,0.00,,,0.00,111,Wunderground v.1.15,2013-01-06 15:21:00,
2013-01-06 09:26:00,18.0,14.8,30.26,South,185,2.0,4.0,87,0.00,,,0.00,125,Wunderground v.1.15,2013-01-06 15:26:00,
2013-01-06 09:31:00,18.9,15.7,30.26,South,188,3.0,3.0,87,0.00,,,0.00,141,Wunderground v.1.15,2013-01-06 15:31:00,
2013-01-06 09:36:00,19.2,15.7,30.26,South,189,3.0,5.0,86,0.00,,,0.00,153,Wunderground v.1.15,2013-01-06 15:36:00,
2013-01-06 09:41:00,19.4,15.9,30.26,SSW,204,4.0,5.0,86,0.00,,,0.00,167,Wunderground v.1.15,2013-01-06 15:41:00,
2013-01-06 09:47:00,19.9,16.4,30.26,SSW,205,4.0,6.0,86,0.00,,,0.00,183,Wunderground v.1.15,2013-01-06 15:47:00,
2013-01-06 09:52:00,20.4,16.9,30.26,SSW,205,4.0,5.0,86,0.00,,,0.00,200,Wunderground v.1.15,2013-01-06 15:52:00,
2013-01-06 09:57:00,21.1,17.6,30.26,SSW,210,5.0,6.0,86,0.00,,,0.00,229,Wunderground v.1.15,2013-01-06 15:57:00,
2013-01-06 10:02:00,21.5,17.7,30.26,SW,233,4.0,6.0,85,0.00,,,0.00,246,Wunderground v.1.15,2013-01-06 16:02:00,
2013-01-06 10:07:00,22.2,18.4,30.26,SW,219,5.0,6.0,85,0.00,,,0.00,258,Wunderground v.1.15,2013-01-06 16:07:00,
2013-01-06 10:12:00,23.0,18.9,30.26,SW,217,5.0,6.0,84,0.00,,,0.00,271,Wunderground v.1.15,2013-01-06 16:12:00,
2013-01-06 10:17:00,23.9,19.5,30.26,SW,218,4.0,6.0,83,0.00,,,0.00,283,Wunderground v.1.15,2013-01-06 16:17:00,
2013-01-06 10:22:00,25.3,20.9,30.26,WSW,250,2.0,4.0,83,0.00,,,0.00,294,Wunderground v.1.15,2013-01-06 16:22:00,
2013-01-06 10:27:00,26.2,21.2,30.26,SW,223,4.0,4.0,81,0.00,,,0.00,306,Wunderground v.1.15,2013-01-06 16:27:00,
2013-01-06 10:32:00,26.5,21.2,30.26,SW,215,5.0,6.0,80,0.00,,,0.00,318,Wunderground v.1.15,2013-01-06 16:32:00,
2013-01-06 10:37:00,27.1,21.7,30.26,SW,214,2.0,6.0,80,0.00,,,0.00,330,Wunderground v.1.15,2013-01-06 16:37:00,
2013-01-06 10:42:00,27.7,22.0,30.26,SW,219,5.0,6.0,79,0.00,,,0.00,346,Wunderground v.1.15,2013-01-06 16:42:00,
2013-01-06 10:47:00,28.3,22.3,30.26,WSW,250,2.0,7.0,78,0.00,,,0.00,359,Wunderground v.1.15,2013-01-06 16:47:00,
2013-01-06 10:52:00,29.0,22.7,30.25,SW,214,3.0,6.0,77,0.00,,,0.00,381,Wunderground v.1.15,2013-01-06 16:52:00,
2013-01-06 10:57:00,29.4,22.8,30.26,SW,229,7.0,7.0,76,0.00,,,0.00,401,Wunderground v.1.15,2013-01-06 16:57:00,
2013-01-06 11:02:00,29.8,23.2,30.25,SSW,213,6.0,7.0,76,0.00,,,0.00,404,Wunderground v.1.15,2013-01-06 17:02:00,
2013-01-06 11:07:00,30.2,23.2,30.25,SW,227,4.0,8.0,75,0.00,,,0.00,406,Wunderground v.1.15,2013-01-06 17:07:00,
2013-01-06 11:12:00,30.7,23.4,30.25,SW,219,4.0,6.0,74,0.00,,,0.00,411,Wunderground v.1.15,2013-01-06 17:12:00,
2013-01-06 11:17:00,31.2,23.9,30.25,SW,219,4.0,7.0,74,0.00,,,0.00,417,Wunderground v.1.15,2013-01-06 17:17:00,
2013-01-06 11:22:00,31.7,24.0,30.24,SW,230,4.0,6.0,73,0.00,,,0.00,422,Wunderground v.1.15,2013-01-06 17:22:00,
2013-01-06 11:27:00,32.7,24.7,30.24,SW,219,4.0,6.0,72,0.00,,,0.00,429,Wunderground v.1.15,2013-01-06 17:27:00,
2013-01-06 11:32:00,33.5,25.4,30.24,SSW,213,7.0,7.0,72,0.00,,,0.00,434,Wunderground v.1.15,2013-01-06 17:32:00,
2013-01-06 11:37:00,34.2,25.8,30.24,SW,221,7.0,7.0,71,0.00,,,0.00,439,Wunderground v.1.15,2013-01-06 17:37:00,
2013-01-06 11:42:00,35.2,26.4,30.23,SSW,211,6.0,7.0,70,0.00,,,0.00,446,Wunderground v.1.15,2013-01-06 17:42:00,
2013-01-06 11:47:00,35.5,26.3,30.23,SSW,209,7.0,7.0,69,0.00,,,0.00,450,Wunderground v.1.15,2013-01-06 17:47:00,
2013-01-06 11:52:00,35.8,26.3,30.22,SSW,204,7.0,7.0,68,0.00,,,0.00,454,Wunderground v.1.15,2013-01-06 17:52:00,
2013-01-06 11:57:00,36.1,26.2,30.22,SSW,200,7.0,8.0,67,0.00,,,0.00,457,Wunderground v.1.15,2013-01-06 17:57:00,
2013-01-06 12:02:00,36.5,26.6,30.22,SSW,197,7.0,8.0,67,0.00,,,0.00,461,Wunderground v.1.15,2013-01-06 18:02:00,
2013-01-06 12:07:00,36.8,26.1,30.22,SSW,207,7.0,8.0,65,0.00,,,0.00,464,Wunderground v.1.15,2013-01-06 18:07:00,
2013-01-06 12:12:00,37.2,26.5,30.21,SSW,204,6.0,8.0,65,0.00,,,0.00,468,Wunderground v.1.15,2013-01-06 18:12:00,
2013-01-06 12:17:00,37.6,26.9,30.21,SSW,205,5.0,8.0,65,0.00,,,0.00,469,Wunderground v.1.15,2013-01-06 18:17:00,
2013-01-06 12:22:00,37.9,26.4,30.21,SSW,205,7.0,8.0,63,0.00,,,0.00,471,Wunderground v.1.15,2013-01-06 18:22:00,
2013-01-06 12:27:00,38.5,26.6,30.20,SSW,203,7.0,8.0,62,0.00,,,0.00,473,Wunderground v.1.15,2013-01-06 18:27:00,
2013-01-06 12:32:00,39.0,27.1,30.20,SSW,210,7.0,8.0,62,0.00,,,0.00,475,Wunderground v.1.15,2013-01-06 18:32:00,
2013-01-06 12:37:00,39.6,27.6,30.20,SSW,203,7.0,8.0,62,0.00,,,0.00,476,Wunderground v.1.15,2013-01-06 18:37:00,
2013-01-06 12:42:00,39.6,26.8,30.19,SSW,202,5.0,10.0,60,0.00,,,0.00,482,Wunderground v.1.15,2013-01-06 18:42:00,
2013-01-06 12:47:00,40.0,27.6,30.19,SSW,192,6.0,10.0,61,0.00,,,0.00,480,Wunderground v.1.15,2013-01-06 18:47:00,
2013-01-06 12:52:00,40.1,27.3,30.19,SSW,208,6.0,9.0,60,0.00,,,0.00,476,Wunderground v.1.15,2013-01-06 18:52:00,
2013-01-06 12:57:00,40.5,27.7,30.19,SSW,192,7.0,11.0,60,0.00,,,0.00,483,Wunderground v.1.15,2013-01-06 18:57:00,
2013-01-06 13:02:00,40.5,27.7,30.19,SSW,196,7.0,10.0,60,0.00,,,0.00,483,Wunderground v.1.15,2013-01-06 19:02:00,
2013-01-06 13:07:00,40.5,27.3,30.19,SSW,211,9.0,10.0,59,0.00,,,0.00,457,Wunderground v.1.15,2013-01-06 19:07:00,
2013-01-06 13:12:00,40.9,28.1,30.18,South,190,6.0,11.0,60,0.00,,,0.00,478,Wunderground v.1.15,2013-01-06 19:12:00,
2013-01-06 13:17:00,41.3,28.0,30.18,SSW,198,7.0,11.0,59,0.00,,,0.00,476,Wunderground v.1.15,2013-01-06 19:17:00,
2013-01-06 13:22:00,41.1,27.0,30.18,SSW,203,10.0,11.0,57,0.00,,,0.00,476,Wunderground v.1.15,2013-01-06 19:22:00,
2013-01-06 13:27:00,41.0,27.3,30.17,South,191,9.0,11.0,58,0.00,,,0.00,473,Wunderground v.1.15,2013-01-06 19:27:00,
2013-01-06 13:32:00,41.3,27.6,30.17,SSW,198,6.0,10.0,58,0.00,,,0.00,462,Wunderground v.1.15,2013-01-06 19:32:00,
2013-01-06 13:38:00,41.4,27.7,30.17,SSW,213,9.0,12.0,58,0.00,,,0.00,459,Wunderground v.1.15,2013-01-06 19:38:00,
2013-01-06 13:48:00,41.4,27.7,30.16,SSW,202,12.0,14.0,58,0.00,,,0.00,448,Wunderground v.1.15,2013-01-06 19:48:00,
2013-01-06 13:53:00,41.4,27.3,30.16,SSW,210,11.0,12.0,57,0.00,,,0.00,438,Wunderground v.1.15,2013-01-06 19:53:00,
2013-01-06 13:58:00,41.5,27.4,30.16,South,191,10.0,14.0,57,0.00,,,0.00,439,Wunderground v.1.15,2013-01-06 19:58:00,
2013-01-06 14:03:00,41.9,27.8,30.15,SSW,207,9.0,13.0,57,0.00,,,0.00,432,Wunderground v.1.15,2013-01-06 20:03:00,
2013-01-06 14:08:00,42.1,27.9,30.15,SSW,196,10.0,14.0,57,0.00,,,0.00,427,Wunderground v.1.15,2013-01-06 20:08:00,
2013-01-06 14:11:00,42.2,27.6,30.15,SSW,204,10.0,10.0,56,0.00,,,0.00,422,Wunderground v.1.15,2013-01-06 20:11:00,
2013-01-06 14:13:00,42.1,27.5,30.15,South,187,12.0,12.0,56,0.00,,,0.00,420,Wunderground v.1.15,2013-01-06 20:13:00,
2013-01-06 14:18:00,42.4,27.8,30.15,SSW,205,7.0,16.0,56,0.00,,,0.00,413,Wunderground v.1.15,2013-01-06 20:18:00,
2013-01-06 14:23:00,42.4,27.4,30.15,South,176,10.0,15.0,55,0.00,,,0.00,406,Wunderground v.1.15,2013-01-06 20:23:00,
2013-01-06 14:28:00,42.2,27.6,30.15,South,191,10.0,15.0,56,0.00,,,0.00,397,Wunderground v.1.15,2013-01-06 20:28:00,
2013-01-06 14:33:00,42.3,27.7,30.15,South,191,8.0,17.0,56,0.00,,,0.00,390,Wunderground v.1.15,2013-01-06 20:33:00,
2013-01-06 14:38:00,42.2,27.6,30.15,SSW,200,10.0,17.0,56,0.00,,,0.00,378,Wunderground v.1.15,2013-01-06 20:38:00,
2013-01-06 14:43:00,42.2,28.0,30.14,SSW,199,13.0,15.0,57,0.00,,,0.00,373,Wunderground v.1.15,2013-01-06 20:43:00,
2013-01-06 14:48:00,41.9,27.3,30.14,South,189,15.0,17.0,56,0.00,,,0.00,366,Wunderground v.1.15,2013-01-06 20:48:00,
2013-01-06 14:53:00,41.8,27.7,30.14,SSW,201,14.0,17.0,57,0.00,,,0.00,353,Wunderground v.1.15,2013-01-06 20:53:00,
2013-01-06 14:58:00,41.7,27.6,30.14,SSW,202,16.0,18.0,57,0.00,,,0.00,346,Wunderground v.1.15,2013-01-06 20:58:00,
2013-01-06 15:01:00,41.6,27.5,30.13,South,178,15.0,18.0,57,0.00,,,0.00,341,Wunderground v.1.15,2013-01-06 21:01:00,
2013-01-06 15:06:00,41.6,27.9,30.14,South,190,14.0,18.0,58,0.00,,,0.00,332,Wunderground v.1.15,2013-01-06 21:06:00,
2013-01-06 15:11:00,41.7,28.0,30.14,SSW,193,9.0,13.0,58,0.00,,,0.00,323,Wunderground v.1.15,2013-01-06 21:11:00,
2013-01-06 15:16:00,41.7,28.4,30.13,South,182,11.0,16.0,59,0.00,,,0.00,316,Wunderground v.1.15,2013-01-06 21:16:00,
2013-01-06 15:21:00,41.7,28.4,30.13,SSW,200,9.0,13.0,59,0.00,,,0.00,308,Wunderground v.1.15,2013-01-06 21:21:00,
2013-01-06 15:26:00,41.7,28.0,30.13,SSW,197,12.0,20.0,58,0.00,,,0.00,295,Wunderground v.1.15,2013-01-06 21:26:00,
2013-01-06 15:31:00,41.6,27.5,30.13,SSW,211,11.0,15.0,57,0.00,,,0.00,281,Wunderground v.1.15,2013-01-06 21:31:00,
2013-01-06 15:36:00,41.5,27.8,30.12,SSW,209,9.0,16.0,58,0.00,,,0.00,265,Wunderground v.1.15,2013-01-06 21:36:00,
2013-01-06 15:41:00,41.3,27.6,30.12,SSW,192,15.0,16.0,58,0.00,,,0.00,251,Wunderground v.1.15,2013-01-06 21:41:00,
2013-01-06 15:46:00,41.1,27.4,30.12,South,185,16.0,20.0,58,0.00,,,0.00,236,Wunderground v.1.15,2013-01-06 21:46:00,
2013-01-06 15:51:00,40.8,27.6,30.12,South,188,12.0,14.0,59,0.00,,,0.00,213,Wunderground v.1.15,2013-01-06 21:51:00,
2013-01-06 15:56:00,40.6,28.2,30.12,South,184,16.0,16.0,61,0.00,,,0.00,200,Wunderground v.1.15,2013-01-06 21:56:00,
2013-01-06 16:01:00,40.4,28.0,30.11,South,190,13.0,15.0,61,0.00,,,0.00,188,Wunderground v.1.15,2013-01-06 22:01:00,
2013-01-06 16:06:00,40.1,28.1,30.11,South,180,15.0,18.0,62,0.00,,,0.00,163,Wunderground v.1.15,2013-01-06 22:06:00,
2013-01-06 16:11:00,40.0,28.4,30.11,South,186,15.0,16.0,63,0.00,,,0.00,155,Wunderground v.1.15,2013-01-06 22:11:00,
2013-01-06 16:16:00,39.7,28.1,30.11,South,174,12.0,20.0,63,0.00,,,0.00,139,Wunderground v.1.15,2013-01-06 22:16:00,
2013-01-06 16:21:00,39.4,28.2,30.10,SSW,192,10.0,18.0,64,0.00,,,0.00,123,Wunderground v.1.15,2013-01-06 22:21:00,
2013-01-06 16:26:00,39.2,28.0,30.10,South,189,13.0,19.0,64,0.00,,,0.00,109,Wunderground v.1.15,2013-01-06 22:26:00,
2013-01-06 16:31:00,39.0,27.8,30.10,SSW,192,16.0,18.0,64,0.00,,,0.00,95,Wunderground v.1.15,2013-01-06 22:31:00,
2013-01-06 16:36:00,38.7,27.9,30.10,South,178,13.0,19.0,65,0.00,,,0.00,81,Wunderground v.1.15,2013-01-06 22:36:00,
2013-01-06 16:41:00,38.2,27.8,30.10,South,180,15.0,18.0,66,0.00,,,0.00,60,Wunderground v.1.15,2013-01-06 22:41:00,
2013-01-06 16:46:00,38.0,28.0,30.09,South,189,18.0,18.0,67,0.00,,,0.00,46,Wunderground v.1.15,2013-01-06 22:46:00,
2013-01-06 16:51:00,37.7,27.7,30.09,SSW,202,15.0,18.0,67,0.00,,,0.00,32,Wunderground v.1.15,2013-01-06 22:51:00,
2013-01-06 16:56:00,37.2,27.6,30.09,South,177,10.0,19.0,68,0.00,,,0.00,14,Wunderground v.1.15,2013-01-06 22:56:00,
2013-01-06 17:01:00,36.8,27.6,30.08,SSW,196,10.0,16.0,69,0.00,,,0.00,11,Wunderground v.1.15,2013-01-06 23:01:00,
2013-01-06 17:06:00,36.4,27.2,30.08,South,188,12.0,22.0,69,0.00,,,0.00,9,Wunderground v.1.15,2013-01-06 23:06:00,
2013-01-06 17:11:00,36.2,27.4,30.08,SSW,193,15.0,18.0,70,0.00,,,0.00,7,Wunderground v.1.15,2013-01-06 23:11:00,
2013-01-06 17:16:00,35.8,27.3,30.08,South,183,15.0,18.0,71,0.00,,,0.00,0,Wunderground v.1.15,2013-01-06 23:16:00,
2013-01-06 17:21:00,35.5,27.0,30.08,South,188,12.0,16.0,71,0.00,,,0.00,0,Wunderground v.1.15,2013-01-06 23:21:00,
2013-01-06 17:26:00,35.1,27.0,30.08,SSW,194,10.0,17.0,72,0.00,,,0.00,0,Wunderground v.1.15,2013-01-06 23:26:00,
2013-01-06 17:31:00,35.1,27.0,30.07,South,175,15.0,15.0,72,0.00,,,0.00,0,Wunderground v.1.15,2013-01-06 23:31:00,
2013-01-06 17:36:00,34.9,26.8,30.07,South,186,14.0,17.0,72,0.00,,,0.00,0,Wunderground v.1.15,2013-01-06 23:36:00,
2013-01-06 17:41:00,34.6,26.5,30.06,South,182,15.0,16.0,72,0.00,,,0.00,0,Wunderground v.1.15,2013-01-06 23:41:00,
2013-01-06 17:46:00,34.4,26.6,30.06,SSW,196,13.0,19.0,73,0.00,,,0.00,0,Wunderground v.1.15,2013-01-06 23:46:00,
2013-01-06 17:51:00,34.4,26.6,30.06,South,191,14.0,18.0,73,0.00,,,0.00,0,Wunderground v.1.15,2013-01-06 23:51:00,
2013-01-06 17:56:00,34.4,26.6,30.06,SSW,198,13.0,18.0,73,0.00,,,0.00,0,Wunderground v.1.15,2013-01-06 23:56:00,
2013-01-06 18:01:00,34.2,26.4,30.06,SSW,204,13.0,18.0,73,0.00,,,0.00,0,Wunderground v.1.15,2013-01-07 00:01:00,
2013-01-06 18:06:00,34.1,26.0,30.06,South,181,12.0,20.0,72,0.00,,,0.00,0,Wunderground v.1.15,2013-01-07 00:06:00,
2013-01-06 18:11:00,33.9,26.2,30.05,South,186,15.0,17.0,73,0.00,,,0.00,0,Wunderground v.1.15,2013-01-07 00:11:00,
2013-01-06 18:16:00,33.9,26.2,30.05,South,188,13.0,18.0,73,0.00,,,0.00,0,Wunderground v.1.15,2013-01-07 00:16:00,
2013-01-06 18:21:00,34.0,25.9,30.05,South,190,16.0,19.0,72,0.00,,,0.00,0,Wunderground v.1.15,2013-01-07 00:21:00,
2013-01-06 18:26:00,34.0,25.9,30.04,South,181,15.0,19.0,72,0.00,,,0.00,0,Wunderground v.1.15,2013-01-07 00:26:00,
2013-01-06 18:31:00,34.0,25.9,30.04,South,175,15.0,18.0,72,0.00,,,0.00,0,Wunderground v.1.15,2013-01-07 00:31:00,
2013-01-06 18:36:00,34.1,25.7,30.03,South,178,15.0,19.0,71,0.00,,,0.00,0,Wunderground v.1.15,2013-01-07 00:36:00,
2013-01-06 18:41:00,33.9,25.5,30.03,South,180,18.0,20.0,71,0.00,,,0.00,0,Wunderground v.1.15,2013-01-07 00:41:00,
2013-01-06 18:46:00,33.7,25.3,30.03,South,189,18.0,22.0,71,0.00,,,0.00,0,Wunderground v.1.15,2013-01-07 00:46:00,
2013-01-06 18:51:00,33.6,25.2,30.03,South,186,16.0,20.0,71,0.00,,,0.00,0,Wunderground v.1.15,2013-01-07 00:51:00,
2013-01-06 18:56:00,33.4,25.0,30.02,SSW,198,15.0,20.0,71,0.00,,,0.00,0,Wunderground v.1.15,2013-01-07 00:56:00,
2013-01-06 19:01:00,33.4,25.0,30.02,SSW,205,13.0,22.0,71,0.00,,,0.00,0,Wunderground v.1.15,2013-01-07 01:01:00,
2013-01-06 19:06:00,33.5,24.8,30.02,SSW,211,16.0,22.0,70,0.00,,,0.00,0,Wunderground v.1.15,2013-01-07 01:06:00,
2013-01-06 19:11:00,33.5,24.8,30.02,South,190,18.0,22.0,70,0.00,,,0.00,0,Wunderground v.1.15,2013-01-07 01:11:00,
2013-01-06 19:16:00,33.5,24.4,30.02,SSW,198,17.0,23.0,69,0.00,,,0.00,0,Wunderground v.1.15,2013-01-07 01:16:00,
2013-01-06 19:21:00,33.4,24.3,30.02,SSW,193,20.0,22.0,69,0.00,,,0.00,0,Wunderground v.1.15,2013-01-07 01:21:00,
2013-01-06 19:26:00,33.4,24.3,30.02,South,183,21.0,24.0,69,0.00,,,0.00,0,Wunderground v.1.15,2013-01-07 01:26:00,
2013-01-06 19:31:00,33.4,24.3,30.02,SSW,200,18.0,21.0,69,0.00,,,0.00,0,Wunderground v.1.15,2013-01-07 01:31:00,
2013-01-06 19:36:00,33.4,24.3,30.01,SSW,192,18.0,21.0,69,0.00,,,0.00,0,Wunderground v.1.15,2013-01-07 01:36:00,
2013-01-06 19:41:00,33.3,24.2,30.01,SSW,213,14.0,19.0,69,0.00,,,0.00,0,Wunderground v.1.15,2013-01-07 01:41:00,
2013-01-06 19:46:00,33.2,24.1,30.01,South,189,15.0,24.0,69,0.00,,,0.00,0,Wunderground v.1.15,2013-01-07 01:46:00,
2013-01-06 19:51:00,32.9,24.2,30.01,SSW,199,13.0,17.0,70,0.00,,,0.00,0,Wunderground v.1.15,2013-01-07 01:51:00,
2013-01-06 19:56:00,33.1,24.0,30.01,SSW,209,12.0,22.0,69,0.00,,,0.00,0,Wunderground v.1.15,2013-01-07 01:56:00,
2013-01-06 20:02:00,32.7,24.0,30.01,SSW,201,15.0,21.0,70,0.00,,,0.00,0,Wunderground v.1.15,2013-01-07 02:02:00,
2013-01-06 20:07:00,32.3,23.9,30.00,SW,215,13.0,21.0,71,0.00,,,0.00,0,Wunderground v.1.15,2013-01-07 02:07:00,
2013-01-06 20:12:00,31.9,23.9,30.00,South,186,11.0,16.0,72,0.00,,,0.00,0,Wunderground v.1.15,2013-01-07 02:12:00,
2013-01-06 20:17:00,31.7,23.7,30.00,SSW,198,12.0,21.0,72,0.00,,,0.00,0,Wunderground v.1.15,2013-01-07 02:17:00,
2013-01-06 20:22:00,31.8,23.8,30.00,SSW,192,19.0,19.0,72,0.00,,,0.00,0,Wunderground v.1.15,2013-01-07 02:22:00,
2013-01-06 20:27:00,32.0,24.0,30.00,SSW,212,13.0,23.0,72,0.00,,,0.00,0,Wunderground v.1.15,2013-01-07 02:27:00,
2013-01-06 20:32:00,31.9,23.9,30.00,SSW,205,19.0,20.0,72,0.00,,,0.00,0,Wunderground v.1.15,2013-01-07 02:32:00,
2013-01-06 20:37:00,31.7,23.7,30.00,SSW,195,12.0,20.0,72,0.00,,,0.00,0,Wunderground v.1.15,2013-01-07 02:37:00,
2013-01-06 20:42:00,31.3,23.6,30.00,SSW,211,11.0,15.0,73,0.00,,,0.00,0,Wunderground v.1.15,2013-01-07 02:42:00,
2013-01-06 20:47:00,30.9,23.6,30.00,SSW,207,10.0,16.0,74,0.00,,,0.00,0,Wunderground v.1.15,2013-01-07 02:47:00,
2013-01-06 20:52:00,30.7,23.7,29.99,SSW,209,11.0,16.0,75,0.00,,,0.00,0,Wunderground v.1.15,2013-01-07 02:52:00,
2013-01-06 20:57:00,31.2,24.2,29.99,SSW,198,15.0,19.0,75,0.00,,,0.00,0,Wunderground v.1.15,2013-01-07 02:57:00,
2013-01-06 21:02:00,31.8,24.1,29.99,SSW,208,15.0,23.0,73,0.00,,,0.00,0,Wunderground v.1.15,2013-01-07 03:02:00,
2013-01-06 21:07:00,31.8,24.1,29.99,SSW,213,14.0,23.0,73,0.00,,,0.00,0,Wunderground v.1.15,2013-01-07 03:07:00,
2013-01-06 21:12:00,32.0,24.3,29.98,SSW,202,15.0,21.0,73,0.00,,,0.00,0,Wunderground v.1.15,2013-01-07 03:12:00,
2013-01-06 21:17:00,31.9,24.2,29.99,SSW,209,21.0,21.0,73,0.00,,,0.00,0,Wunderground v.1.15,2013-01-07 03:17:00,
2013-01-06 21:22:00,32.0,24.0,29.98,SSW,204,16.0,21.0,72,0.00,,,0.00,0,Wunderground v.1.15,2013-01-07 03:22:00,
2013-01-06 21:27:00,32.0,24.0,29.98,SSW,203,10.0,22.0,72,0.00,,,0.00,0,Wunderground v.1.15,2013-01-07 03:27:00,
2013-01-06 21:32:00,31.7,23.7,29.98,South,190,18.0,23.0,72,0.00,,,0.00,0,Wunderground v.1.15,2013-01-07 03:32:00,
2013-01-06 21:37:00,31.6,23.9,29.98,SSW,198,13.0,23.0,73,0.00,,,0.00,0,Wunderground v.1.15,2013-01-07 03:37:00,
2013-01-06 21:42:00,31.5,23.8,29.98,SSW,196,17.0,24.0,73,0.00,,,0.00,0,Wunderground v.1.15,2013-01-07 03:42:00,
2013-01-06 21:47:00,31.3,24.0,29.98,SSW,211,11.0,24.0,74,0.00,,,0.00,0,Wunderground v.1.15,2013-01-07 03:47:00,
2013-01-06 21:52:00,31.0,23.7,29.98,SSW,201,19.0,20.0,74,0.00,,,0.00,0,Wunderground v.1.15,2013-01-07 03:52:00,
2013-01-06 21:57:00,31.0,23.7,29.97,South,190,23.0,23.0,74,0.00,,,0.00,0,Wunderground v.1.15,2013-01-07 03:57:00,
2013-01-06 22:02:00,31.1,23.8,29.97,SW,215,18.0,25.0,74,0.00,,,0.00,0,Wunderground v.1.15,2013-01-07 04:02:00,
2013-01-06 22:07:00,31.2,23.9,29.97,SSW,212,18.0,26.0,74,0.00,,,0.00,0,Wunderground v.1.15,2013-01-07 04:07:00,
2013-01-06 22:12:00,31.5,24.2,29.97,SSW,196,18.0,28.0,74,0.00,,,0.00,0,Wunderground v.1.15,2013-01-07 04:12:00,
2013-01-06 22:17:00,31.6,24.3,29.97,SSW,201,22.0,36.0,74,0.00,,,0.00,0,Wunderground v.1.15,2013-01-07 04:17:00,
2013-01-06 22:22:00,31.6,24.3,29.97,SSW,202,19.0,32.0,74,0.00,,,0.00,0,Wunderground v.1.15,2013-01-07 04:22:00,
2013-01-06 22:27:00,31.7,24.4,29.97,SSW,196,21.0,32.0,74,0.00,,,0.00,0,Wunderground v.1.15,2013-01-07 04:27:00,
2013-01-06 22:32:00,31.6,24.3,29.97,South,188,21.0,25.0,74,0.00,,,0.00,0,Wunderground v.1.15,2013-01-07 04:32:00,
2013-01-06 22:37:00,31.5,24.2,29.97,South,184,19.0,27.0,74,0.00,,,0.00,0,Wunderground v.1.15,2013-01-07 04:37:00,
2013-01-06 22:41:00,31.5,24.5,29.96,SW,221,24.0,26.0,75,0.00,,,0.00,0,Wunderground v.1.15,2013-01-07 04:41:00,
2013-01-06 22:46:00,31.5,24.5,29.96,SSW,212,21.0,27.0,75,0.00,,,0.00,0,Wunderground v.1.15,2013-01-07 04:46:00,
2013-01-06 22:51:00,31.3,24.3,29.96,SSW,197,25.0,28.0,75,0.00,,,0.00,0,Wunderground v.1.15,2013-01-07 04:51:00,
2013-01-06 22:56:00,31.3,24.6,29.96,SSW,208,17.0,28.0,76,0.00,,,0.00,0,Wunderground v.1.15,2013-01-07 04:56:00,
2013-01-06 23:00:00,31.3,24.6,29.96,SSW,208,16.0,19.0,76,0.00,,,0.00,0,Wunderground v.1.15,2013-01-07 05:00:00,
2013-01-06 23:01:00,31.3,24.6,29.96,SSW,196,19.0,19.0,76,0.00,,,0.00,0,Wunderground v.1.15,2013-01-07 05:01:00,
2013-01-06 23:06:00,31.1,24.4,29.96,SSW,194,19.0,26.0,76,0.00,,,0.00,0,Wunderground v.1.15,2013-01-07 05:06:00,
2013-01-06 23:11:00,31.0,24.6,29.96,SSW,202,14.0,17.0,77,0.00,,,0.00,0,Wunderground v.1.15,2013-01-07 05:11:00,
2013-01-06 23:16:00,30.9,24.5,29.96,SSW,195,18.0,22.0,77,0.00,,,0.00,0,Wunderground v.1.15,2013-01-07 05:16:00,
2013-01-06 23:21:00,30.9,24.8,29.95,SSW,202,13.0,24.0,78,0.00,,,0.00,0,Wunderground v.1.15,2013-01-07 05:21:00,
2013-01-06 23:26:00,30.9,24.8,29.95,SSW,211,17.0,26.0,78,0.00,,,0.00,0,Wunderground v.1.15,2013-01-07 05:26:00,
2013-01-06 23:31:00,31.2,25.1,29.94,SSW,200,16.0,25.0,78,0.00,,,0.00,0,Wunderground v.1.15,2013-01-07 05:31:00,
2013-01-06 23:36:00,31.6,25.2,29.94,SSW,208,20.0,27.0,77,0.00,,,0.00,0,Wunderground v.1.15,2013-01-07 05:36:00,
2013-01-06 23:41:00,31.6,25.2,29.94,SSW,206,25.0,25.0,77,0.00,,,0.00,0,Wunderground v.1.15,2013-01-07 05:41:00,
2013-01-06 23:46:00,31.6,25.2,29.94,SW,221,14.0,31.0,77,0.00,,,0.00,0,Wunderground v.1.15,2013-01-07 05:46:00,
2013-01-06 23:51:00,31.6,25.5,29.93,SSW,196,19.0,25.0,78,0.00,,,0.00,0,Wunderground v.1.15,2013-01-07 05:51:00,
2013-01-06 23:56:00,31.5,25.4,29.93,SSW,205,26.0,29.0,78,0.00,,,0.00,0,Wunderground v.1.15,2013-01-07 05:56:00,